STARLINK-32231, 60439

Orbit data source: Space-Track

STARLINK-32231, 60439 is a payload satellite owned by SpaceX/Seattle (US) in LEO that was launched on Mon, 12 Aug 2024 UTC via an FALCON 9 launch vehicle from the Air Force Eastern Test Range (AFETR). Payload-class satellites include a variety of spacecraft equipped with specific instruments for various scientific and technological missions. These include communications satellites like Starlink; space stations such as the ISS; scientific satellites like the Hubble; Earth observation satellites from companies like Planet Labs, Umbra, and HawkEye 360; GPS; miniature CubeSats for education and research; and military/defense satellites.

Loading next visibility...
Identifier
60439, 2024-144Q
Orbit
LEO
Country
Flag of USUS
Related business
Manufacturer
SpaceX/Seattle
Mission
Operational Commercial Communications
Bus & Motor
STARLINK V2M, Unknown motor
Mass
730 kg wet, ~700 kg dry
Launch date (UTC)
2024-08-12 (2 years ago)
Launch vehicle
FALCON 9
Launch site
Air Force Eastern Test Range (AFETR)
Object type
Payload
Rocket body
Debris
Shape & HBR
Box + 2 Pan, 17.7 m
Radar Cross Section
33.884 m², Large (>1 m²)

Expand to show TLE details & history
Last TLE update: 17 hours ago

TLE from 17 hours ago
0 STARLINK-32231
1 60439U 24144Q   26171.18446999 -.00000235  00000-0  41678-5 0  9996
2 60439  53.1602  99.4876 0001294  98.6961 261.4188 15.34403681104122
Epoch: 2026-06-20T04:25Z
TLE epoch observation values (Epoch: 2026-06-20T04:25:38.207Z)
Latitude
-0.00002°
Longitude
124.67566°
Altitude
463.726 km
Speed
7.636 km/s
True Right ascension
06h 37m 57s
True Declination
0° 00' 00"
Sunlit
Object was in daylight at epoch
Visualization orbit readout
Latitude
Unknown
Longitude
Unknown
Altitude
Unknown
Speed
Unknown
Apparent Right ascension
Unknown
Apparent Declination
Unknown
Sunlit
N/A
Visualization observer readout
Local Sidereal Time
08:32:36
Azimuth
Unknown
Elevation
Unknown
Doppler factor
Unknown
Orbital elements
Apogee altitude
463.834 km
Perigee altitude
462.064 km
Semi-major axis
6,841.086 km
Eccentricity
0.00013
Inclination
53.1602°
RAAN
99.4876°
Arg. of periapsis
98.6961°
True anomaly
261.40414°
Mean anomaly
261.4188°
Eccentric anomaly
261.41147°
Mean motion
3.8358 °/min
Orbital period
93.85 mins
BSTAR
0.0000041678
Loading maneuver chart data...
Computing Atmospheric mass density...
Loading historical data...
Loading historical data...
Loading historical data...
Loading historical data...
Loading historical data...
Loading historical data...
Loading historical data...

Documentation

Showing up to 5 results
|